Погода в Аристове

Россия / Калужская область     54°36′12″N   36°40′14″E
темп.,
°C
ветер,
м/с
пор.,
м/с
влажн.,
%
обл.,
%
осадки,
мм/ч
давл.,
гПа
погр.,
м
6 марта, сб
сб600:00−10сз11877 0.0 101521
03:00−10зсз118846 0.0 101721
06:00−11сз359299 0.0 101681
09:00−10сз379355 0.0 1018224
12:00−6сз46810 0.0 1018833
15:00−5зсз467649 0.1 10171162
18:00−8зсз348376 0.2 101745
21:00−10зюз348840 0.2 101667
7 марта, вс
вс700:00−11зюз49916 0.0 1014162
03:00−9юз6148734 0.0 1011446
06:00−7юз9178899 0.1 1007731
09:00−6юз101791100 0.4 10021034
12:00−3юз111893100 1.0 9971252
15:000зюз111989100 2.0 9951447
18:00−7зсз497275 1.9 997196
21:00−7з6159154 1.9 1000657
8 марта, пн
пн800:00−8юз5148493 0.0 998492
03:00−6зюз7148796 0.0 997644
06:00−11з7149085 0.6 998591
09:00−8сз6118692 0.7 1001747
12:00−7зсз7118430 0.0 1003971
15:00−7зсз7108365 0.1 10051073
18:00−8зсз5108897 0.1 1008436
21:00−10сз369587 0.2 1011157
9 марта, вт
вт900:00−13сз339770 0.0 101252
03:00−15ссз339771 0.0 101439
06:00−15ссз239699 0.0 101549
09:00−13ссз3593100 0.0 1017300
12:00−11ссз358588 0.0 1018630
15:00−10ссз468193 0.0 1019832
18:00−13ссз338785 0.0 101945
21:00−17ссз239271 0.0 102223
10 марта, ср
ср1000:00−18сз229437 0.0 102320
03:00−18ссв119866 0.0 102420
06:00−17вюв2397100 0.1 102376
09:00−16в3496100 0.6 1023210
12:00−14в4693100 0.4 1024333
15:00−13в458388 0.4 1024417
18:00−17в34890 0.0 102551
21:00−21в33930 0.0 102734